Location: ?????????
(38.5999°N, 22.7695°E)
Time: 21:06:48
(UTC+00:00)

Cosmos 371 Rocket - Pass Details

Date: 12 August 2024
Orbit: 679 x 692 km, 74.0° (Epoch: 17 September)

Event Time Altitude Azimuth Distance (km) Brightness Sun altitude
Rises 19:51:39 0° 351° (N) 3,067 7.5 -24.6°
Reaches altitude 10° 19:54:12 10° 1° (N) 2,144 6.4 -25.0°
Enters shadow 19:57:51 31° 48° (NE) 1,206 4.5 -25.5°
